Location: Aciu?a
(46.2833°N, 22.4500°E)
Time: 07:02:23
(UTC+00:00)

Cosmos 2322 Rocket - Visible Passes

Search period start: 21 May 2022 00:00
Search period end: 31 May 2022 00:00
Orbit: 834 x 849 km, 71.0° (Epoch: 20 May)

Date Brightness Start Highest point End Pass type
(mag) Time Alt. Az. Time Alt. Az. Time Alt. Az.
21 May 4.2 20:11:25 10° E 20:11:25 10° E 20:12:20 10° E visible
21 May 2.1 21:53:11 54° S 21:54:23 73° ESE 22:00:00 10° NNE visible
21 May 4.1 23:34:57 11° W 23:39:01 23° NW 23:43:25 10° N visible
22 May 2.1 21:37:57 50° S 21:39:19 69° ESE 21:44:55 10° NNE visible
22 May 4.0 23:19:43 11° W 23:23:54 24° NW 23:28:23 10° N visible
23 May 2.1 21:22:40 45° S 21:24:15 66° ESE 21:29:50 10° NNE visible
23 May 4.0 23:04:26 11° W 23:08:47 24° NW 23:13:21 10° N visible
24 May 2.2 21:07:18 40° S 21:09:11 62° ESE 21:14:45 10° NNE visible
24 May 4.0 22:49:04 10° WSW 22:53:41 25° NW 22:58:19 10° N visible
25 May 2.2 20:51:51 34° S 20:54:08 59° ESE 20:59:39 10° NNE visible
25 May 4.0 22:33:53 10° WSW 22:38:34 26° NW 22:43:17 10° N visible
26 May 2.3 20:36:17 28° S 20:39:04 56° ESE 20:44:34 10° NE visible
26 May 3.9 22:18:42 10° WSW 22:23:28 27° NW 22:28:15 10° N visible
27 May 2.3 20:20:35 22° S 20:24:00 53° ESE 20:29:29 10° NE visible
27 May 3.9 22:03:33 10° WSW 22:08:21 29° NW 22:13:12 10° N visible
28 May 2.4 20:04:42 16° S 20:08:57 51° ESE 20:14:22 10° NE visible
28 May 3.9 21:48:22 10° WSW 21:53:15 30° NW 21:58:10 10° N visible
29 May 2.4 19:48:32 10° S 19:53:54 48° ESE 19:59:17 10° NE visible
29 May 3.9 21:33:12 10° WSW 21:38:09 31° NW 21:43:08 10° N visible
30 May 2.5 19:33:32 10° S 19:38:51 46° ESE 19:44:11 10° NE visible
30 May 3.8 21:18:03 10° WSW 21:23:03 32° NW 21:28:05 10° NNE visible
